TimeGMT,TemperatureF,Dew PointF,Humidity,Sea Level PressureIn,VisibilityMPH,Wind Direction,Wind SpeedMPH,Gust SpeedMPH,PrecipitationIn,Events,Conditions,WindDirDegrees,DateUTC
12:00 AM,54,53,97,29.95,12,SSE,8.9,,,Rain,Light Rain,150,2012-11-13 00:00:00
12:00 AM,53.6,53.6,100,29.95,6.2,SSE,9.2,-,N/A,,Mostly Cloudy,150,2012-11-13 00:00:00
12:30 AM,55.4,53.6,94,29.92,6.2,SSE,15.0,-,N/A,,Mostly Cloudy,150,2012-11-13 00:30:00
1:00 AM,55.4,53.6,94,29.92,6.2,SE,12.7,-,N/A,,Mostly Cloudy,140,2012-11-13 01:00:00
1:30 AM,55.4,53.6,94,29.92,6.2,SSE,11.5,-,N/A,,Light Drizzle,160,2012-11-13 01:30:00
2:00 AM,55.4,53.6,94,29.92,6.2,South,13.8,-,N/A,Rain,Light Rain,170,2012-11-13 02:00:00
2:30 AM,55.4,53.6,94,29.92,6.2,South,17.3,-,N/A,,Mostly Cloudy,170,2012-11-13 02:30:00
3:00 AM,57.2,53.6,88,29.92,6.2,South,17.3,-,N/A,,Mostly Cloudy,180,2012-11-13 03:00:00
3:30 AM,55.4,53.6,94,29.92,6.2,South,17.3,-,N/A,,Mostly Cloudy,170,2012-11-13 03:30:00
4:00 AM,57.2,51.8,82,29.92,6.2,South,18.4,-,N/A,,Mostly Cloudy,170,2012-11-13 04:00:00
4:30 AM,55.4,51.8,88,29.92,6.2,South,15.0,-,N/A,,Mostly Cloudy,170,2012-11-13 04:30:00
5:00 AM,55.4,51.8,88,29.92,6.2,SSE,13.8,-,N/A,,Mostly Cloudy,150,2012-11-13 05:00:00
5:30 AM,55.4,51.8,88,29.92,6.2,SSE,12.7,-,N/A,,Mostly Cloudy,150,2012-11-13 05:30:00
6:00 AM,55,51,84,29.92,12,SE,15.7,,,,Partly Cloudy,140,2012-11-13 06:00:00
6:00 AM,55.4,51.8,88,29.92,6.2,SE,15.0,-,N/A,,Mostly Cloudy,140,2012-11-13 06:00:00
6:30 AM,55.4,51.8,88,29.89,6.2,SSE,11.5,-,N/A,,Mostly Cloudy,150,2012-11-13 06:30:00
7:00 AM,55.4,51.8,88,29.89,6.2,SSE,15.0,-,N/A,,Mostly Cloudy,150,2012-11-13 07:00:00
7:30 AM,55.4,51.8,88,29.89,6.2,SSE,16.1,-,N/A,,Mostly Cloudy,160,2012-11-13 07:30:00
8:00 AM,55.4,51.8,88,29.92,6.2,SSE,17.3,-,N/A,,Mostly Cloudy,160,2012-11-13 08:00:00
8:30 AM,55.4,51.8,88,29.92,6.2,SE,17.3,-,N/A,,Mostly Cloudy,140,2012-11-13 08:30:00
9:00 AM,57.2,51.8,82,29.92,6.2,SSE,12.7,-,N/A,,Mostly Cloudy,160,2012-11-13 09:00:00
9:30 AM,57.2,51.8,82,29.92,6.2,South,17.3,-,N/A,,Light Drizzle,180,2012-11-13 09:30:00
10:00 AM,57.2,53.6,88,29.92,6.2,South,17.3,-,N/A,,Light Drizzle,170,2012-11-13 10:00:00
10:30 AM,57.2,53.6,88,29.92,4.3,South,20.7,-,N/A,,Light Drizzle,180,2012-11-13 10:30:00
11:00 AM,55.4,53.6,94,29.92,4.3,South,21.9,-,N/A,,Light Drizzle,190,2012-11-13 11:00:00
11:30 AM,55.4,53.6,94,29.95,2.5,South,17.3,-,N/A,Rain,Light Rain,190,2012-11-13 11:30:00
12:00 PM,56,54,92,29.96,3,South,17.9,,,Rain,Light Rain,190,2012-11-13 12:00:00
12:00 PM,55.4,53.6,94,29.95,3.1,South,18.4,-,N/A,Rain,Light Rain,190,2012-11-13 12:00:00
12:30 PM,55.4,55.4,100,29.95,4.3,South,12.7,-,N/A,Rain,Light Rain,180,2012-11-13 12:30:00
1:00 PM,55.4,55.4,100,29.95,1.2,SSW,10.4,-,N/A,Rain,Light Rain,210,2012-11-13 13:00:00
1:30 PM,53.6,53.6,100,29.98,1.2,WSW,9.2,-,N/A,Rain,Light Rain,250,2012-11-13 13:30:00
2:00 PM,51.8,51.8,100,29.98,1.2,WSW,9.2,-,N/A,Rain,Light Rain,250,2012-11-13 14:00:00
2:30 PM,51.8,51.8,100,29.98,1.1,WSW,8.1,-,N/A,Rain,Light Rain,250,2012-11-13 14:30:00
3:00 PM,51.8,51.8,100,29.98,2.8,West,8.1,-,N/A,Rain,Light Rain,280,2012-11-13 15:00:00
3:30 PM,50.0,50.0,100,29.98,3.1,West,5.8,-,N/A,Rain,Light Rain,260,2012-11-13 15:30:00
4:00 PM,50.0,50.0,100,30.01,1.9,WSW,4.6,-,N/A,Rain,Light Rain,250,2012-11-13 16:00:00
4:30 PM,50.0,50.0,100,30.01,1.6,SW,3.5,-,N/A,Rain,Light Rain,220,2012-11-13 16:30:00
5:00 PM,50.0,50.0,100,30.01,1.1,SSW,5.8,-,N/A,Rain,Light Rain,210,2012-11-13 17:00:00
5:30 PM,50.0,50.0,100,30.01,1.2,SSW,5.8,-,N/A,Rain,Light Rain,200,2012-11-13 17:30:00
6:00 PM,49,49,100,30.05,2,SSE,4.5,,,Rain,Rain,150,2012-11-13 18:00:00
6:00 PM,50.0,50.0,100,30.04,2.2,SSE,4.6,-,N/A,Rain,Rain,150,2012-11-13 18:00:00
6:30 PM,50.0,50.0,100,30.04,6.2,SSE,4.6,-,N/A,,Light Drizzle,150,2012-11-13 18:30:00
7:00 PM,50.0,50.0,100,30.04,6.2,ESE,5.8,-,N/A,Rain,Light Rain,120,2012-11-13 19:00:00
7:30 PM,50.0,50.0,100,30.06,5.0,SE,4.6,-,N/A,,Light Drizzle,130,2012-11-13 19:30:00
8:00 PM,50.0,50.0,100,30.06,5.0,ESE,6.9,-,N/A,,Light Drizzle,120,2012-11-13 20:00:00
8:30 PM,50.0,50.0,100,30.06,3.1,ESE,8.1,-,N/A,,Mostly Cloudy,120,2012-11-13 20:30:00
9:00 PM,50.0,50.0,100,30.06,3.1,ESE,8.1,-,N/A,,Mostly Cloudy,120,2012-11-13 21:00:00
9:30 PM,50.0,50.0,100,30.06,2.5,ESE,6.9,-,N/A,,Mostly Cloudy,110,2012-11-13 21:30:00
10:00 PM,50.0,50.0,100,30.06,1.2,ESE,5.8,-,N/A,,Mostly Cloudy,110,2012-11-13 22:00:00
10:30 PM,50.0,50.0,100,30.06,0.9,ESE,4.6,-,N/A,,Mostly Cloudy,110,2012-11-13 22:30:00
11:00 PM,50.0,50.0,100,30.06,1.2,ESE,5.8,-,N/A,,Mostly Cloudy,110,2012-11-13 23:00:00
11:30 PM,50.0,50.0,100,30.06,1.2,SE,3.5,-,N/A,,Mostly Cloudy,130,2012-11-13 23:30:00